Tracking 22879 objects as of 21-Apr-2021
HD Live streaming from Space Station
objects crossing your sky now

STARLINK-2104

Track STARLINK-2104 now!
10-day predictions
STARLINK-2104 is classified as:


NORAD ID: 47384
Int'l Code: 2021-005AM
Perigee: 383.9 km
Apogee: 389.6 km
Inclination: 53.1 °
Period: 92.1 minutes
Semi major axis: 6757 km
RCS: Unknown
Launch date: January 20, 2021
Source: United States (US)
Launch site: AIR FORCE EASTERN TEST RANGE (AFETR)
aabbcc
Your satellite tracking list
Your tracking list is empty




NASA's NSSDC Master Catalog

Two Line Element Set (TLE):
1 47384U 21005AM  21110.58335648 -.00056912  00000-0 -61883-3 0  9995
2 47384  53.0534 129.5444 0004251   7.0513 340.1685 15.62790126  1765
Source of the keplerian elements: AFSPC